Location: Silent Lake
(44.9206°N, 78.0708°W)
Time: 20:02:53
(UTC-04:00)

Daily predictions for brighter satellites

Satellite Brightness Start Highest point End
(mag) Time Altitude Azimuth Time Altitude Azimuth Time Altitude Azimuth
Cosmos 371 Rocket 4.4 21:38:10 10° N 21:42:27 31° ENE 21:46:43 10° ESE
Cosmos 2227 Rocket 3.7 21:37:33 10° SW 21:42:54 42° WNW 21:48:16 10° NNE
Cosmos 2208 Rocket 4.1 21:37:42 10° NNW 21:43:04 89° WSW 21:48:28 10° SSE
Cosmos 1140 Rocket 4.3 21:38:01 10° SW 21:43:06 58° WNW 21:48:11 10° NNE
Cosmos 1674 2.7 21:41:03 10° S 21:44:46 60° E 21:48:28 10° NNE
Cosmos 2016 Rocket 4.3 21:40:09 10° N 21:46:16 51° ENE 21:52:15 10° SSE
MetOp-A 4.3 21:41:26 10° SSE 21:46:43 63° ENE 21:52:01 10° N
ARGOS 3.5 21:43:27 10° SE 21:48:41 51° ENE 21:53:55 10° N
Okean 3 Rocket 3.6 21:44:12 10° S 21:48:42 90° SW 21:53:13 10° N
SAR-Lupe-4 4.2 21:45:32 10° S 21:49:03 56° WSW 21:52:36 10° NNW
Cosmos 1943 4.3 21:44:29 10° N 21:49:30 32° NE 21:54:31 10° ESE
Lacrosse 5 2.0 21:45:03 10° NW 21:50:08 71° NE 21:55:11 10° ESE
CZ-3B R/B 4.3 21:47:12 10° SSW 21:50:16 47° ESE 22:00:05 10° NE
SL-16 R/B 2.9 21:45:46 10° NW 21:51:17 54° WSW 21:56:46 10° S
Cosmos 1908 3.2 21:47:32 10° N 21:51:27 89° W 21:55:18 10° S
SPOT 5 3.4 21:47:27 10° SE 21:52:07 48° ENE 21:57:03 10° N
Cosmos 1570 Rocket 4.4 21:49:40 10° NNW 21:54:57 65° WSW 22:00:08 10° S
SPOT 1/Viking Rocket 4.2 21:54:36 10° SE 21:59:25 43° ENE 22:04:16 10° N
Cosmos 1766 Rocket 3.6 21:56:33 10° S 22:00:47 59° E 22:05:04 10° NNE
KORONAS-FOTON 3.8 21:58:12 10° S 22:01:58 64° E 22:05:44 10° NNE
Abrixas rocket 2.3 21:59:31 10° WNW 22:02:46 71° NNE 22:06:00 10° ESE
Cosmos 1242 Rocket 2.9 21:59:10 10° NNW 22:02:52 67° W 22:06:33 10° S
Cosmos 1328 Rocket 4.2 22:00:09 10° N 22:04:16 40° ENE 22:07:53 13° SE
Helios 1B rocket 3.9 22:03:10 10° N 22:07:05 41° WNW 22:10:58 10° SW
Cosmos 1515 Rocket 4.4 22:06:11 10° N 22:10:09 34° ENE 22:13:24 14° SE
USA 245 3.3 22:07:27 12° SSE 22:10:35 68° ENE 22:14:57 10° N
Cosmos 1151 Rocket 4.3 22:06:51 10° NNE 22:10:38 27° ENE 22:13:43 13° SE
YAOGAN 11 4.2 22:08:19 11° SSE 22:12:42 75° ENE 22:17:17 10° N
Cosmos 2084 3.9 22:09:34 10° SW 22:13:30 58° NW 22:17:17 10° NNE
USA 234 3.5 22:09:38 10° ENE 22:15:56 47° SE 22:22:10 10° SSW
Cosmos 1867 3.8 22:11:27 10° SW 22:16:53 76° NW 22:22:23 10° NNE
H-2A R/B 3.7 22:13:53 11° ESE 22:16:55 21° ENE 22:20:07 10° NNE
Cosmos 1743 Rocket 4.1 22:13:15 12° SSE 22:16:56 40° E 22:20:59 10° NNE
Cosmos 2228 Rocket 3.4 22:13:54 10° N 22:18:24 53° ENE 22:22:04 15° SSE
Cosmos 468 Rocket 4.0 22:16:23 10° NNW 22:21:32 83° WSW 22:26:04 13° SSE
Cosmos 1459 Rocket 4.5 22:18:39 10° NNW 22:24:51 61° W 22:30:56 10° S
SL-08 RB Rocket 3.7 22:21:53 13° SSE 22:26:00 88° ENE 22:30:38 10° NNW
Terra 2.7 22:24:00 15° SE 22:27:25 36° ENE 22:31:46 10° N
ERS-1 Rocket 3.9 22:22:54 10° S 22:27:43 46° W 22:32:34 10° NNW
Cosmos 2227 4.2 22:23:28 10° SSW 22:29:13 90° ESE 22:34:58 10° NNE
Nimbus 7 Rocket 4.5 22:25:01 10° NNE 22:31:02 63° ESE 22:36:55 10° S
Cosmos 332 Rocket 3.9 22:28:13 10° NNW 22:33:08 78° WSW 22:37:02 16° SSE
H-2A ROCKET BODY 4.1 22:29:29 10° S 22:33:13 17° SE 22:41:02 10° ESE
Meteor 1-27 4.5 22:35:54 10° N 22:41:41 60° ENE 22:45:45 19° SSE
Meteor 2-10 4.2 22:36:13 10° N 22:41:51 88° W 22:46:32 16° S
Cosmos 2123 Rocket 4.0 22:36:54 10° S 22:43:04 89° ESE 22:49:20 10° N
H-2A R/B 2.2 22:39:05 15° SSE 22:43:30 84° WSW 22:48:59 10° NNW
Cosmos 220 Rocket 3.9 22:40:06 10° SSW 22:44:31 80° ESE 22:48:55 10° NNE
Cosmos 1626 3.0 22:44:37 24° SE 22:46:08 33° E 22:49:32 10° NNE
Cosmos 2058 3.4 22:44:53 22° SSE 22:47:15 45° E 22:51:17 10° NNE
Cosmos 1726 3.1 22:45:38 10° NNW 22:49:08 42° W 22:52:04 14° SSW
Cosmos 540 Rocket 4.3 22:45:33 10° N 22:50:23 39° ENE 22:53:35 19° ESE
Cosmos 2263 Rocket 2.4 22:46:57 13° S 22:51:38 50° ESE 22:57:02 10° NE
Cosmos 1300 3.3 22:49:07 10° NNW 22:52:52 53° W 22:55:37 17° SSW
RESURS DK-1 3.5 22:50:19 10° NW 22:54:10 36° WSW 22:56:54 17° S
ATLAS 5 CENTAUR R/B 3.9 22:52:18 10° W 22:56:34 31° NW 23:01:13 10° NNE
SL-14 R/B 3.7 22:53:30 11° SSW 22:57:14 61° W 23:01:09 10° N
Cosmos 2285 Rocket 4.3 22:51:15 10° NNW 22:57:29 56° ENE 23:01:42 21° SE
CZ-3A R/B 2.3 22:58:14 10° NNE 22:58:14 10° NNE 22:58:14 10° NNE
EO 1 Delta rocket 4.3 22:55:37 15° S 22:59:24 57° W 23:04:01 10° NNW
Cosmos 1725 Rocket 4.4 22:57:52 10° NNW 23:04:01 60° W 23:09:19 14° S
ERBS 3.0 23:02:16 10° WNW 23:05:29 41° SW 23:06:28 32° S
deb Chang Zheng 4 4.0 23:03:31 10° NNE 23:07:44 45° E 23:09:31 29° SSE
PSLV R/B 3.6 23:09:22 37° ESE 23:09:49 41° ENE 23:12:33 10° N
Cosmos 1356 3.5 23:11:37 26° SSW 23:13:27 77° W 23:16:58 10° N
Tiangong 1 1.5 23:11:11 10° W 23:13:24 37° SW 23:13:24 37° SW
Cosmos 2151 3.0 23:11:00 21° SSW 23:13:52 79° W 23:18:11 10° N
Cosmos 1354 Rocket 4.0 23:16:06 23° S 23:19:23 65° ESE 23:24:34 10° NNE
Cosmos 1500 Rocket 4.2 23:18:03 15° SSW 23:21:36 55° WNW 23:26:00 10° N
DMSP B5D2-2 4.3 23:16:35 10° N 23:21:48 71° WNW 23:26:18 14° SSW
Cosmos 1844 Rocket 4.0 23:24:43 20° ESE 23:25:37 21° E 23:29:41 10° NE
Cosmos 1455 2.1 23:22:25 10° N 23:26:18 81° E 23:27:33 41° SSE
CZ-4C R/B 3.0 23:28:14 27° SE 23:29:04 28° ESE 23:33:56 10° NE
Cosmos 1464 Rocket 4.1 23:23:23 10° N 23:29:30 62° E 23:32:45 29° SSE
Cosmos 1666 Rocket 4.3 23:28:28 31° SE 23:29:39 37° E 23:33:47 10° NNE
Cosmos 841 Rocket 4.1 23:26:04 10° NNW 23:31:06 47° WSW 23:33:53 24° SSW
CARTOSAT-1 4.1 23:29:27 27° SSW 23:31:33 51° W 23:35:47 10° NNW
Lacrosse 5 3.4 23:28:43 10° WNW 23:32:41 23° WSW 23:34:30 19° SSW
Cosmos 1943 3.9 23:28:21 10° NW 23:33:42 45° WSW 23:36:46 24° SSW
SL-19 R/B 4.1 23:28:40 10° NNE 23:34:02 90° WNW 23:37:45 22° SSW
Cosmos 1869 3.6 23:33:05 10° N 23:36:57 52° ENE 23:37:55 41° SE
Abrixas rocket 3.7 23:36:33 10° W 23:38:41 24° SW 23:38:41 24° SW
Cosmos 1805 Rocket 3.4 23:39:13 40° S 23:40:42 74° E 23:45:03 10° NNE
Cosmos 1633 Rocket 3.5 23:44:55 38° SE 23:45:51 45° E 23:50:01 10° NNE
Cosmos 967 Rocket 4.5 23:40:24 10° NNW 23:46:49 84° ENE 23:50:08 31° SE
CZ-4C R/B 3.5 23:46:43 44° SSE 23:48:05 84° ENE 23:52:31 10° NNW
Cosmos 1400 Rocket 4.1 23:49:33 26° E 23:49:52 26° E 23:53:22 10° NE
H-2A R/B 3.0 23:51:01 27° SSW 23:52:42 39° W 23:56:42 10° NNW
SME Rocket 3.0 23:52:50 47° S 23:53:57 84° WSW 23:58:43 10° NNW
